Location: Deurze
(52.9838°N, 6.6090°E)
Time: 19:09:26
(UTC+00:00)

Lacrosse 4 Rocket - Pass Details

Date: 11 March 2026
Orbit: 508 x 566 km, 68.0° (Epoch: 20 April)

Event Time Altitude Azimuth Distance (km) Brightness Sun altitude
Rises 18:15:16 0° 261° (W) 2,616 6.7 -7.6°
Reaches altitude 10° 18:17:52 10° 279° (W) 1,738 5.6 -8.0°
Maximum altitude 18:20:47 20° 328° (NNW) 1,239 3.6 -8.4°
Drops below altitude 10° 18:23:44 10° 17° (NNE) 1,761 3.8 -8.8°
Sets 18:26:23 0° 35° (NE) 2,663 4.5 -9.2°
